Location: Akho
(42.3047°N, 44.1844°E)
Time: 00:44:22
(UTC+00:00)

Daily predictions for brighter satellites

Satellite Brightness Start Highest point End
(mag) Time Altitude Azimuth Time Altitude Azimuth Time Altitude Azimuth
Cosmos 1151 Rocket 4.1 00:00:16 10° N 00:04:31 47° ENE 00:08:44 10° SSE
STARLINK-1014 3.6 00:02:47 20° SW 00:05:30 73° SE 00:09:36 10° NE
Cosmos 2151 3.0 00:03:55 16° SSW 00:07:18 72° W 00:11:37 10° N
STARLINK-81 3.3 00:05:07 20° WSW 00:07:30 81° NW 00:11:09 10° NE
H-2A R/B 2.6 00:03:51 10° SSE 00:08:12 64° ENE 00:12:41 10° N
Cosmos 1766 Rocket 3.6 00:04:41 11° S 00:08:52 77° E 00:13:12 10° N
STARLINK-54 3.4 00:06:51 19° WSW 00:09:20 70° NW 00:12:58 10° NE
Lacrosse 5 rocket 3.1 00:06:26 10° S 00:09:38 22° SE 00:12:43 10° ENE
STARLINK-1025 3.6 00:07:33 19° SW 00:10:29 80° SE 00:14:37 10° NE
STARLINK-77 3.3 00:08:15 19° WSW 00:10:45 76° NW 00:14:23 10° NE
Okean 3 Rocket 3.6 00:07:19 12° S 00:11:29 84° W 00:16:03 10° N
Spot 4 Rocket 4.1 00:06:51 10° NNE 00:12:01 81° ESE 00:17:09 10° SSW
SL-16 R/B 3.9 00:10:23 15° SW 00:13:14 20° W 00:17:35 10° NW
GEOS 3 Rocket 4.0 00:08:34 10° S 00:13:24 41° WSW 00:18:21 10° NW
STARLINK-1017 3.6 00:12:18 17° SW 00:15:25 87° SE 00:19:35 10° NE
STARLINK-79 3.4 00:12:57 17° WSW 00:15:39 68° NW 00:19:16 10° NE
STARLINK-78 3.5 00:14:31 16° WSW 00:17:18 66° NNW 00:20:55 10° NE
Cosmos 1408 3.6 00:15:11 17° SW 00:17:23 30° WNW 00:20:41 10° NNW
Cosmos 1339 Rocket 4.5 00:12:04 10° NNW 00:18:10 72° W 00:24:19 10° S
STARLINK-52 2.9 00:15:42 10° WNW 00:18:53 61° SW 00:22:02 10° SE
STARLINK-57 3.6 00:16:11 15° WSW 00:19:03 60° NNW 00:22:39 10° NE
Meteor 2-12 Rocket 4.4 00:13:37 10° S 00:19:39 83° W 00:25:45 10° N
STARLINK-1023 3.6 00:17:04 16° SW 00:20:23 86° NW 00:24:33 10° NE
STARLINK-49 3.5 00:17:39 15° WSW 00:20:33 62° NW 00:24:09 10° NE
SL-08 R/B 3.6 00:16:31 10° S 00:20:57 45° W 00:25:23 10° NNW
STARLINK-27 3.6 00:19:13 14° WSW 00:22:11 60° NNW 00:25:48 10° NE
Cosmos 1825 2.8 00:20:38 15° SW 00:23:27 40° WNW 00:27:01 10° N
STARLINK-74 3.6 00:20:46 14° WSW 00:23:48 58° NW 00:27:24 10° NE
Cosmos 1538 Rocket 4.1 00:19:00 11° SSW 00:24:07 82° WNW 00:29:33 10° NNE
STARLINK-1007 3.7 00:21:54 14° WSW 00:25:25 79° NW 00:29:34 10° NE
STARLINK-39 3.7 00:22:21 13° WSW 00:25:27 56° NNW 00:29:02 10° NE
MSX 4.5 00:20:25 10° NNE 00:26:05 56° E 00:31:41 10° S
Cosmos 1844 Rocket 2.6 00:20:30 10° NNW 00:26:05 75° WSW 00:31:38 10° SSE
STARLINK-31 3.7 00:23:56 12° WSW 00:27:07 54° NNW 00:30:42 10° NE
SL-16 R/B 3.8 00:23:01 10° WSW 00:27:29 23° NW 00:31:57 10° N
STARLINK-69 3.9 00:25:36 11° WSW 00:28:52 48° NNW 00:32:22 10° NE
STARLINK-1048 3.7 00:26:40 13° WSW 00:30:23 73° NW 00:34:32 10° NE
STARLINK-21 3.9 00:27:07 11° WSW 00:30:26 50° NNW 00:33:59 10° NE
CZ-2D R/B 4.1 00:28:41 10° NNW 00:31:00 13° WNW 00:33:20 10° W
COSMOS 2428 3.1 00:25:42 10° S 00:31:17 62° ESE 00:36:53 10° NNE
STARLINK-45 4.0 00:28:46 10° WSW 00:32:13 45° NNW 00:35:44 10° NE
STARLINK-1444 4.0 00:34:00 14° SW 00:34:01 14° SW 00:35:25 10° S
STARLINK-1452 4.1 00:34:41 14° SW 00:34:41 14° SW 00:36:00 10° SSW
STARLINK-76 4.0 00:31:49 10° WSW 00:35:19 46° NNW 00:38:51 10° NE
STARLINK-1049 3.8 00:31:28 11° WSW 00:35:23 67° NW 00:39:31 10° NE
STARLINK-1392 4.2 00:35:45 13° SW 00:35:45 13° SW 00:36:40 10° SSW
STARLINK-1399 4.2 00:35:43 13° SW 00:35:43 13° SW 00:36:44 10° SSW
STARLINK-1393 4.2 00:35:46 13° SW 00:35:46 13° SW 00:36:45 10° SSW
STARLINK-1394 4.2 00:35:47 13° SW 00:35:47 13° SW 00:36:47 10° SSW
STARLINK-1395 4.2 00:35:55 13° SW 00:35:55 13° SW 00:36:48 10° SSW
STARLINK-1397 4.2 00:35:49 13° SW 00:35:49 13° SW 00:36:50 10° SSW
STARLINK-1396 4.2 00:35:50 13° SW 00:35:50 13° SW 00:36:50 10° SSW
STARLINK-1414 4.2 00:35:53 13° SW 00:35:53 13° SW 00:36:51 10° SSW
STARLINK-1408 4.2 00:35:57 13° SW 00:35:57 13° SW 00:36:53 10° SSW
STARLINK-70 4.1 00:32:07 10° WSW 00:35:38 44° NNW 00:39:11 10° NE
STARLINK-1404 4.1 00:35:54 13° SW 00:35:54 13° SW 00:36:56 10° SSW
STARLINK-1416 4.2 00:35:56 13° SW 00:35:56 13° SW 00:36:56 10° SSW
STARLINK-1415 4.1 00:35:53 13° SW 00:35:53 13° SW 00:36:58 10° SSW
STARLINK-1406 4.2 00:36:03 13° SW 00:36:03 13° SW 00:36:58 10° SSW
STARLINK-1450 4.1 00:35:54 13° SW 00:35:54 13° SW 00:37:01 10° SSW
STARLINK-1401 4.1 00:35:56 13° SW 00:35:56 13° SW 00:37:02 10° SSW
STARLINK-1417 4.1 00:35:59 13° SW 00:35:59 13° SW 00:37:05 10° SSW
STARLINK-1413 4.1 00:36:00 13° SW 00:36:00 13° SW 00:37:06 10° SSW
STARLINK-1402 4.1 00:36:00 13° SW 00:36:00 13° SW 00:37:06 10° SSW
STARLINK-1419 4.1 00:36:02 13° SW 00:36:02 13° SW 00:37:06 10° SSW
STARLINK-1422 4.1 00:36:06 13° SW 00:36:06 13° SW 00:37:12 10° SSW
STARLINK-1453 4.1 00:36:03 13° SW 00:36:03 13° SW 00:37:14 10° SSW
STARLINK-1398 4.1 00:36:02 13° SW 00:36:02 13° SW 00:37:16 10° SSW
STARLINK-1420 4.1 00:36:07 13° SW 00:36:07 13° SW 00:37:17 10° SSW
STARLINK-1440 4.1 00:36:08 13° SW 00:36:08 13° SW 00:37:19 10° SSW
STARLINK-1460 4.1 00:36:09 13° SW 00:36:09 13° SW 00:37:19 10° SSW
STARLINK-1436 (VISORSAT) 4.1 00:36:03 13° SW 00:36:04 13° SW 00:37:21 10° SSW
STARLINK-1410 4.1 00:36:15 13° SW 00:36:15 13° SW 00:37:23 10° SSW
STARLINK-1423 4.2 00:36:19 13° SW 00:36:19 13° SW 00:37:23 10° SSW
STARLINK-1400 4.1 00:36:15 13° SW 00:36:15 13° SW 00:37:24 10° SSW
STARLINK-1421 4.2 00:36:19 13° SW 00:36:19 13° SW 00:37:23 10° SSW
STARLINK-1454 4.1 00:36:15 13° SW 00:36:15 13° SW 00:37:25 10° SSW
STARLINK-1458 4.1 00:36:19 13° SW 00:36:19 13° SW 00:37:27 10° SSW
STARLINK-1445 4.1 00:36:18 13° SW 00:36:18 13° SW 00:37:30 10° SSW
STARLINK-1407 4.1 00:36:22 13° SW 00:36:22 13° SW 00:37:31 10° SSW
STARLINK-1405 4.2 00:36:31 13° SW 00:36:31 13° SW 00:37:30 10° SSW
STARLINK-1446 4.1 00:36:21 13° SW 00:36:21 13° SW 00:37:32 10° SSW
STARLINK-1370 4.1 00:36:24 13° SW 00:36:24 13° SW 00:37:34 10° SSW
STARLINK-1439 4.2 00:36:35 13° SW 00:36:35 13° SW 00:37:34 10° SSW
STARLINK-1456 4.1 00:36:26 13° SW 00:36:26 13° SW 00:37:35 10° SSW
STARLINK-1457 4.1 00:36:26 13° SW 00:36:26 13° SW 00:37:35 10° SSW
STARLINK-1451 4.1 00:36:27 13° SW 00:36:27 13° SW 00:37:35 10° SSW
STARLINK-1409 4.1 00:36:28 13° SW 00:36:28 13° SW 00:37:36 10° SSW
STARLINK-1447 4.1 00:36:25 13° SW 00:36:25 13° SW 00:37:37 10° SSW
STARLINK-1455 4.1 00:36:27 13° SW 00:36:27 13° SW 00:37:37 10° SSW
STARLINK-1437 4.1 00:36:28 13° SW 00:36:28 13° SW 00:37:38 10° SSW
STARLINK-1441 4.1 00:36:27 13° SW 00:36:27 13° SW 00:37:40 10° SSW
STARLINK-1443 4.1 00:36:27 13° SW 00:36:27 13° SW 00:37:43 10° SSW
STARLINK-1351 4.1 00:36:32 13° SW 00:36:32 13° SW 00:37:44 10° SSW
STARLINK-1418 4.1 00:36:32 13° SW 00:36:32 13° SW 00:37:44 10° SSW
STARLINK-1403 4.1 00:36:32 13° SW 00:36:32 13° SW 00:37:44 10° SSW
STARLINK-1434 4.1 00:36:31 13° SW 00:36:31 13° SW 00:37:45 10° SSW
STARLINK-1442 4.1 00:36:32 13° SW 00:36:32 13° SW 00:37:45 10° SSW
STARLINK-1448 4.1 00:36:34 13° SW 00:36:34 13° SW 00:37:47 10° SSW
STARLINK-1433 4.1 00:36:36 13° SW 00:36:36 13° SW 00:37:47 10° SSW
STARLINK-1449 4.1 00:36:36 13° SW 00:36:36 13° SW 00:37:50 10° SSW
STARLINK-1438 4.1 00:36:43 13° SW 00:36:43 13° SW 00:37:51 10° SSW
STARLINK-1411 4.1 00:36:47 13° SW 00:36:47 13° SW 00:37:59 10° SSW
STARLINK-1412 4.1 00:36:46 13° SW 00:36:46 13° SW 00:38:00 10° SSW
STARLINK-23 4.0 00:33:28 10° WSW 00:36:58 45° NNW 00:40:28 10° NE
STARLINK-32 4.1 00:35:04 10° WSW 00:38:31 43° NNW 00:41:58 10° NE
Cosmos 2366 rocket 4.3 00:33:27 10° SSW 00:39:32 55° WNW 00:45:44 10° N
CZ-4C R/B 3.1 00:36:08 10° S 00:39:44 62° WSW 00:43:20 10° NNW
STARLINK-40 4.1 00:36:44 10° WSW 00:40:13 43° NNW 00:43:42 10° NE
STARLINK-1051 3.9 00:36:14 10° WSW 00:40:20 62° NNW 00:44:28 10° NE
Cosmos 1743 Rocket 4.4 00:37:17 10° S 00:41:32 51° E 00:45:47 10° NNE
STARLINK-1377 4.4 00:37:50 10° NW 00:41:47 53° NNE 00:45:42 10° ESE
STARLINK-44 4.2 00:38:21 10° WSW 00:41:48 42° NNW 00:45:17 10° NE
BREEZE-M R/B 3.1 00:40:36 10° NW 00:43:31 43° NNE 00:45:50 10° E
STARLINK-37 4.3 00:40:15 10° W 00:43:39 38° NNW 00:47:05 10° NE
STARLINK-36 4.3 00:41:38 10° W 00:45:04 40° NNW 00:48:31 10° NE
Cosmos 1340 3.2 00:41:45 10° S 00:45:26 59° E 00:49:10 10° NNE
STARLINK-1353 4.3 00:42:09 10° NW 00:46:07 57° NNE 00:50:04 10° ESE
FALCON 9 DEB 3.2 00:43:56 10° WNW 00:47:20 57° SW 00:50:44 10° SE
Cosmos 2278 Rocket 4.0 00:42:35 10° N 00:47:51 37° ENE 00:53:04 10° SE
STARLINK-63 4.4 00:45:08 10° W 00:48:30 36° NNW 00:51:53 10° NE
Cosmos 2360 Rocket 3.2 00:44:21 10° WSW 00:49:22 33° NW 00:54:26 10° N
STARLINK-35 4.4 00:46:35 10° W 00:49:56 36° NNW 00:53:18 10° NE
STARLINK-1028 4.1 00:46:16 10° WSW 00:50:19 53° NNW 00:54:24 10° NE
STARLINK-1375 4.2 00:46:31 10° NW 00:50:30 62° NNE 00:54:28 10° ESE
STARLINK-51 4.4 00:48:18 10° W 00:51:40 36° NNW 00:55:02 10° NE
STARLINK-30 4.5 00:49:57 10° W 00:53:18 35° NNW 00:56:41 10° NE
CZ-2C R/B 3.4 00:49:35 10° NNE 00:54:40 51° E 00:59:40 10° S
STARLINK-1350 4.0 00:50:50 10° NW 00:54:50 66° NNE 00:58:50 10° ESE
STARLINK-1021 4.3 00:51:19 10° WSW 00:55:21 49° NNW 00:59:24 10° NE
CZ-3 R/B 4.0 00:53:38 10° WSW 01:23:24 43° S 01:31:47 10° ESE
